Waarnemingen

Advertentie
Mijn weer
Leutkirch-Herlazhofen, Duitsland (10945): temperatuur & dauwpunt: 17.07.2017 10:00:00 - 23.07.2017 10:00:00 (CEST)Leutkirch-Herlazhofen, Duitsland (10945): temperatuur 5cm & temperatuur -5cm: 17.07.2017 10:00:00 - 23.07.2017 10:00:00 (CEST)Leutkirch-Herlazhofen, Duitsland (10945): temperatuur -20cm & temperatuur -100cm: 17.07.2017 10:00:00 - 23.07.2017 10:00:00 (CEST)Leutkirch-Herlazhofen, Duitsland (10945): windsnelheid & windstoten: 17.07.2017 10:00:00 - 23.07.2017 10:00:00 (CEST)Leutkirch-Herlazhofen, Duitsland (10945): windrichting: 17.07.2017 10:00:00 - 23.07.2017 10:00:00 (CEST)Leutkirch-Herlazhofen, Duitsland (10945): luchtdruk: 17.07.2017 10:00:00 - 23.07.2017 10:00:00 (CEST)Leutkirch-Herlazhofen, Duitsland (10945): zicht: 17.07.2017 10:00:00 - 23.07.2017 10:00:00 (CEST)Leutkirch-Herlazhofen, Duitsland (10945): Zonneschijnduur: 17.07.2017 10:00:00 - 23.07.2017 10:00:00 (CEST)Leutkirch-Herlazhofen, Duitsland (10945): neerslag: 17.07.2017 10:00:00 - 23.07.2017 10:00:00 (CEST)
Datum & Tijd tt [°C] td [°C] tt 5cm [°C] tt -5cm [°C] tt -20cm [°C] tt -100cm [°C] ff [km/u] ff [kn] fx [km/u] fx [kn] dd ppp [hPa] vv [km] sd [min] rr [mm]
23.07.2017 10:00:00 16,7 15,2 16,6 18,9 20,2 18,0 13 7 21 11 ZW 1017,8 8 0 0,0
23.07.2017 09:00:00 16,5 15,0 16,5 18,3 20,3 18,0 11 6 19 10 ZW 1017,6 21 0 0,5
23.07.2017 08:00:00 15,6 14,4 15,3 17,9 20,5 18,0 11 6 18 10 ZZW 1017,6 11 0 0,1
23.07.2017 07:00:00 15,4 14,1 15,2 17,7 20,8 18,0 10 6 14 8 ZZW 1017,3 36 0 0,1
23.07.2017 06:00:00 14,3 13,3 13,9 17,7 21,1 18,0 4 2 13 7 ZW 1017,4 45 0 0,0
23.07.2017 05:00:00 14,0 13,5 13,9 17,9 21,4 18,0 8 4 10 5 Z 1017,2 50 0 0,0
23.07.2017 04:00:00 14,0 13,4 12,6 18,4 21,7 18,0 4 2 11 6 ZZW 1017,2 67 0 0,0
23.07.2017 03:00:00 15,0 14,1 14,7 18,7 22,1 18,0 9 5 16 9 ZO 1017,1 68 0 0,0
23.07.2017 02:00:00 15,0 14,3 14,7 18,9 22,4 18,0 8 4 40 22 O 1017,7 19 0 5,4
23.07.2017 01:00:00 15,1 14,6 15,0 19,7 22,8 18,0 36 20 69 38 WZW 1018,4 2,7 0 7,8
23.07.2017 00:00:00 15,8 14,6 15,6 20,8 23,2 18,0 0 0 4 2 N 1014,7 16 0 0,0
22.07.2017 23:00:00 16,0 14,3 14,6 21,5 23,5 18,0 0 0 3 2 N 1014,9 21 0 0,0
22.07.2017 22:00:00 17,1 14,3 15,0 22,7 23,8 18,0 0 0 6 3 N 1014,7 18 0 0,0
22.07.2017 21:00:00 18,8 14,7 17,4 24,0 23,9 18,0 4 2 6 4 Z 1013,9 35 0 0,0
22.07.2017 20:00:00 21,8 14,7 20,5 25,4 23,9 18,0 4 2 18 10 WNW 1013,3 43 21 0,0
22.07.2017 19:00:00 24,7 14,2 25,2 27,3 23,8 18,0 9 5 16 9 WZW 1012,5 41 60 0,0
22.07.2017 18:00:00 25,1 13,2 26,8 28,4 23,5 18,0 11 6 18 10 WZW 1012,4 35 60 0,0
22.07.2017 17:00:00 25,1 13,0 27,7 29,3 23,1 17,9 11 6 21 12 WZW 1012,3 25 60 0,0
22.07.2017 16:00:00 25,0 13,2 28,0 29,3 22,6 17,9 8 4 22 12 WZW 1012,9 25 59 0,0
22.07.2017 15:00:00 23,9 12,8 27,3 29,1 22,1 17,9 13 7 34 19 ZW 1013,2 19 60 0,0
22.07.2017 14:00:00 23,8 14,8 27,9 28,2 21,6 17,9 10 5 24 13 W 1013,3 30 60 0,0
22.07.2017 13:00:00 22,6 13,6 26,4 26,8 21,2 17,9 12 6 21 11 ZW 1013,9 28 58 0,0
22.07.2017 12:00:00 21,9 14,1 24,7 25,1 20,8 17,9 13 7 19 11 ZW 1014,3 34 59 0,0
22.07.2017 11:00:00 21,0 15,9 24,2 23,1 20,6 17,9 13 7 22 12 ZW 1014,3 28 54 0,0
22.07.2017 10:00:00 19,3 15,4 21,4 21,2 20,6 17,9 13 7 19 11 ZW 1014,6 25 60 0,0
22.07.2017 09:00:00 17,5 15,6 18,6 19,0 20,7 17,9 5 3 12 7 ZZW 1014,7 21 9 0,0
22.07.2017 08:00:00 16,5 15,1 16,5 18,6 20,9 17,9 6 3 9 5 Z 1014,7 28 0 0,0
22.07.2017 07:00:00 15,9 14,4 15,3 18,4 21,2 17,9 6 3 16 9 ZW 1014,5 36 0 0,0
22.07.2017 06:00:00 15,7 14,6 15,2 18,5 21,5 17,9 10 5 16 8 ZZW 1014,1 24 0 0,0
22.07.2017 05:00:00 15,8 14,5 15,3 18,8 21,8 17,9 8 5 13 7 ZZW 1013,8 29 0 0,0
22.07.2017 04:00:00 15,5 14,5 15,2 19,1 22,1 17,9 7 4 12 7 ZZW 1013,8 36 0 0,0
22.07.2017 03:00:00 15,4 14,6 15,1 19,4 22,5 17,9 9 5 15 8 Z 1013,9 16 0 2,3
22.07.2017 02:00:00 15,6 15,0 15,4 19,9 22,9 17,9 7 4 29 16 Z 1014,3 7 0 3,0
22.07.2017 01:00:00 15,9 15,4 15,7 20,8 23,2 17,9 8 5 37 20 ZW 1014,3 2,4 0 4,4
22.07.2017 00:00:00 16,9 14,7 16,7 21,8 23,6 17,9 9 5 15 8 ZW 1013,2 35 0 0,0
21.07.2017 23:00:00 17,7 14,2 17,2 22,6 23,9 17,9 16 9 65 35 ZW 1012,6 54 0 0,1
21.07.2017 22:00:00 19,0 15,2 18,3 23,9 24,1 17,9 4 2 16 8 WNW 1009,6 37 0 0,0
21.07.2017 21:00:00 21,5 13,0 19,9 25,3 24,2 17,9 8 5 19 10 OZO 1008,3 54 0 0,0
21.07.2017 20:00:00 22,7 15,3 22,0 27,0 24,1 17,9 9 5 30 16 O 1008,5 60 0 0,0
21.07.2017 19:00:00 25,0 14,7 24,4 29,2 23,8 17,9 15 8 24 13 O 1008,2 47 42 0,0
21.07.2017 18:00:00 26,1 14,5 28,3 30,5 23,4 17,9 11 6 22 12 NO 1007,9 39 60 0,0
21.07.2017 17:00:00 25,9 13,8 28,8 30,7 22,9 17,9 9 5 19 10 ONO 1008,6 43 60 0,0
21.07.2017 16:00:00 26,3 15,7 29,7 30,6 22,2 17,9 8 4 17 9 O 1009,2 35 57 0,0
21.07.2017 15:00:00 25,4 14,1 27,7 30,2 21,5 17,9 8 5 23 12 ONO 1009,9 62 56 0,0
21.07.2017 14:00:00 25,1 13,2 29,4 29,7 20,8 17,8 13 7 25 13 O 1010,1 29 60 0,0
21.07.2017 13:00:00 24,1 13,2 28,2 27,5 20,2 17,8 16 9 25 13 NO 1010,9 19 59 0,0
21.07.2017 12:00:00 23,6 14,4 26,6 25,2 19,8 17,8 14 8 24 13 ONO 1011,5 38 60 0,0
21.07.2017 11:00:00 21,9 13,3 25,1 23,2 19,5 17,8 15 8 21 11 O 1012,5 27 60 0,0
21.07.2017 10:00:00 20,6 14,6 23,4 21,0 19,3 17,8 11 6 18 10 ONO 1013,1 18 60 0,0
21.07.2017 09:00:00 19,2 14,4 21,3 18,8 19,3 17,8 8 4 13 7 NO 1013,7 20 60 0,0
21.07.2017 08:00:00 16,6 12,8 18,4 16,8 19,5 17,8 0 0 4 2 N 1014,3 23 60 0,0
21.07.2017 07:00:00 13,2 11,9 13,1 16,0 19,7 17,8 0 0 4 2 N 1015,4 12 41 0,0
21.07.2017 06:00:00 11,8 11,3 9,8 16,2 20,0 17,8 3 1 4 2 Z 1016,1 10 0 0,0
21.07.2017 05:00:00 13,1 12,2 11,9 16,8 20,2 17,8 3 2 10 6 ONO 1015,8 14 0 0,0
21.07.2017 04:00:00 12,9 12,0 12,1 17,0 20,5 17,8 5 3 8 4 OZO 1016,0 21 0 0,0
21.07.2017 03:00:00 13,7 12,9 13,4 17,4 20,8 17,8 4 2 7 4 ZZO 1016,0 17 0 0,0
21.07.2017 02:00:00 13,3 12,4 12,3 17,6 21,1 17,7 4 2 9 5 ZO 1016,3 23 0 0,0
21.07.2017 01:00:00 13,0 12,3 11,4 18,2 21,3 17,7 3 2 6 4 ZZW 1016,1 11 0 0,0
21.07.2017 00:00:00 13,8 12,9 12,5 18,9 21,6 17,7 3 1 5 3 ZZW 1016,1 14 0 0,0
20.07.2017 23:00:00 15,1 13,9 13,6 19,8 21,8 17,7 3 1 10 6 Z 1015,8 16 0 0,0
20.07.2017 22:00:00 15,9 14,2 15,1 20,5 22,0 17,7 6 4 8 4 Z 1015,3 19 0 0,0
20.07.2017 21:00:00 17,7 15,0 15,9 21,7 22,0 17,7 4 2 9 5 Z 1014,0 25 26 0,0
20.07.2017 20:00:00 20,6 14,0 20,5 22,8 22,0 17,7 5 3 13 7 ZZW 1013,0 60 56 0,0
20.07.2017 19:00:00 20,5 13,2 21,7 23,8 21,8 17,7 8 5 18 10 Z 1013,2 41 60 0,0
20.07.2017 18:00:00 19,8 13,9 22,3 24,1 21,7 17,7 12 6 19 11 Z 1013,9 26 60 0,0
20.07.2017 17:00:00 18,7 14,4 20,0 22,9 21,8 17,7 11 6 24 13 ZZW 1014,4 26 31 0,0
20.07.2017 16:00:00 16,0 14,3 16,7 20,9 21,9 17,7 16 8 24 13 Z 1015,4 19 0 0,9
20.07.2017 15:00:00 16,0 13,4 15,2 21,2 22,0 17,6 16 9 29 16 WZW 1016,0 4,7 0 0,6
20.07.2017 14:00:00 17,1 15,0 16,1 22,5 22,0 17,6 22 12 33 18 WZW 1015,3 5 0 0,0
20.07.2017 13:00:00 19,8 13,5 20,0 24,1 21,7 17,6 16 9 33 18 WZW 1013,8 48 2 0,0
20.07.2017 12:00:00 21,8 14,6 24,7 24,8 21,5 17,6 21 12 31 17 W 1012,8 24 14 0,0
20.07.2017 11:00:00 21,9 14,7 24,1 23,8 21,3 17,6 16 9 27 15 WZW 1012,4 47 55 0,0
20.07.2017 10:00:00 21,2 13,9 23,6 22,1 21,3 17,6 14 7 21 11 ZW 1012,4 30 54 0,0
20.07.2017 09:00:00 20,7 14,0 22,4 20,9 21,4 17,6 10 6 19 10 ZW 1012,9 30 41 0,0
20.07.2017 08:00:00 19,4 14,1 20,1 19,5 21,6 17,6 9 5 19 10 Z 1013,3 27 46 0,0
20.07.2017 07:00:00 17,6 14,2 17,6 18,9 21,9 17,6 8 5 18 10 Z 1013,8 42 0 0,0
20.07.2017 06:00:00 17,4 13,8 16,4 19,2 22,2 17,6 14 7 27 14 ZZW 1014,1 40 0 0,0
20.07.2017 05:00:00 17,6 14,1 17,0 19,6 22,5 17,6 20 11 36 20 Z 1013,8 40 0 0,0
20.07.2017 04:00:00 18,4 13,1 17,4 20,0 22,8 17,5 17 9 31 17 ZZW 1013,1 37 0 0,0
20.07.2017 03:00:00 16,1 13,0 14,9 20,4 23,2 17,5 7 4 12 7 ZW 1013,5 51 0 0,0
20.07.2017 02:00:00 17,1 13,9 16,3 21,2 23,5 17,5 6 3 10 5 Z 1013,3 47 0 0,0
20.07.2017 01:00:00 17,9 12,7 16,0 21,7 23,9 17,5 0 0 19 11 N 1013,5 50 0 0,0
20.07.2017 00:00:00 20,0 12,2 18,2 22,5 24,3 17,5 7 4 20 11 ONO 1012,8 53 0 0,1
19.07.2017 23:00:00 20,3 11,8 19,4 23,2 24,6 17,5 14 7 39 21 Z 1013,4 70 0 0,1
19.07.2017 22:00:00 20,5 11,0 19,4 24,7 24,8 17,5 20 11 40 22 ZW 1013,4 43 0 0,0
19.07.2017 21:00:00 23,4 11,1 21,9 26,9 24,9 17,5 28 15 42 23 WZW 1011,8 33 0 0,0
19.07.2017 20:00:00 25,6 16,3 24,4 28,9 24,7 17,5 10 5 18 10 W 1009,8 54 20 0,0
19.07.2017 19:00:00 29,3 15,2 30,5 30,9 24,4 17,5 4 2 11 6 NW 1008,4 70 60 0,0
19.07.2017 18:00:00 29,6 15,9 31,9 32,0 23,9 17,5 7 4 14 8 ONO 1008,2 44 60 0,0
19.07.2017 17:00:00 30,5 12,4 33,6 32,7 23,2 17,5 4 2 13 7 NW 1008,7 36 60 0,0
19.07.2017 16:00:00 29,8 12,5 34,1 32,4 22,5 17,5 4 2 9 5 W 1009,5 37 60 0,0
19.07.2017 15:00:00 28,7 13,4 32,5 31,0 21,8 17,5 4 2 11 6 ZZO 1010,5 47 60 0,0
19.07.2017 14:00:00 27,1 14,3 31,1 28,8 21,3 17,4 10 5 26 14 WZW 1011,8 32 60 0,0
19.07.2017 13:00:00 25,9 15,0 28,7 26,7 20,9 17,4 18 10 28 15 WZW 1012,7 18 60 0,0
19.07.2017 12:00:00 24,9 13,7 26,9 25,0 20,5 17,4 21 11 31 17 WZW 1013,3 14 60 0,0
19.07.2017 11:00:00 24,3 14,4 26,6 24,0 20,2 17,4 12 6 23 12 ZW 1013,9 32 60 0,0
19.07.2017 10:00:00 22,5 13,5 24,7 21,5 20,2 17,4 9 5 14 7 ZZW 1014,4 28 60 0,0
19.07.2017 09:00:00 18,3 13,9 17,8 18,9 20,3 17,4 7 4 9 5 Z 1015,7 70 14 0,0
19.07.2017 08:00:00 16,8 13,5 15,8 18,0 20,5 17,4 5 3 8 4 Z 1015,8 70 49 0,0
19.07.2017 07:00:00 14,7 12,3 13,7 16,9 20,9 17,4 4 2 7 4 ZO 1016,2 63 30 0,0
19.07.2017 06:00:00 12,8 11,6 11,2 17,0 21,2 17,4 4 2 8 4 O 1016,4 61 0 0,0
19.07.2017 05:00:00 13,2 11,8 11,9 17,4 21,6 17,4 8 5 11 6 Z 1016,0 70 0 0,0
19.07.2017 04:00:00 13,3 12,2 12,0 17,9 22,0 17,4 9 5 10 6 ZO 1016,0 53 0 0,0
19.07.2017 03:00:00 13,4 12,0 11,9 18,6 22,4 17,4 4 2 11 6 O 1015,9 48 0 0,0
19.07.2017 02:00:00 13,1 12,4 11,7 19,5 22,9 17,4 5 3 9 5 ZZO 1016,7 30 0 0,0
19.07.2017 01:00:00 16,0 13,0 14,1 20,3 23,3 17,4 2 1 27 14 N 1016,1 40 0 0,1
19.07.2017 00:00:00 16,1 13,4 14,9 21,5 23,6 17,4 19 10 27 15 ZZO 1017,1 43 0 1,8
18.07.2017 23:00:00 19,2 12,7 18,5 22,6 24,0 17,4 9 5 30 16 Z 1016,8 52 0 0,0
18.07.2017 22:00:00 19,2 12,3 18,0 23,8 24,2 17,4 5 3 28 15 WNW 1015,3 49 0 0,0
18.07.2017 21:00:00 19,2 12,0 18,7 25,6 24,4 17,4 25 14 53 29 ZZO 1015,5 58 0 0,1
18.07.2017 20:00:00 23,3 11,5 22,5 27,9 24,3 17,4 16 9 29 16 OZO 1013,5 58 1 0,0
18.07.2017 19:00:00 26,5 13,5 26,4 30,3 23,9 17,4 6 4 14 8 NO 1012,9 70 56 0,0
18.07.2017 18:00:00 27,3 13,1 29,5 31,7 23,4 17,4 7 4 18 10 ONO 1012,6 46 60 0,0
18.07.2017 17:00:00 27,3 12,3 30,4 32,2 22,8 17,4 9 5 17 9 O 1013,1 37 60 0,0
18.07.2017 16:00:00 27,1 12,3 30,4 32,2 22,1 17,3 6 3 18 10 NNO 1013,6 70 60 0,0
18.07.2017 15:00:00 27,1 13,0 33,3 31,1 21,4 17,3 7 4 22 12 NO 1014,1 34 60 0,0
18.07.2017 14:00:00 26,6 15,4 31,9 29,6 20,7 17,3 10 5 19 10 NO 1014,7 29 60 0,0
18.07.2017 13:00:00 25,7 14,6 30,1 27,6 20,1 17,3 10 6 21 12 ONO 1015,4 30 60 0,0
18.07.2017 12:00:00 24,7 13,2 27,6 25,8 19,7 17,3 11 6 20 11 ONO 1016,0 28 60 0,0
18.07.2017 11:00:00 23,6 13,6 26,2 23,8 19,3 17,3 14 8 22 12 ONO 1016,6 27 59 0,0
18.07.2017 10:00:00 22,5 14,2 25,2 21,7 19,2 17,3 11 6 16 8 NO 1016,7 36 60 0,0
18.07.2017 09:00:00 19,7 13,7 23,0 19,0 19,2 17,3 5 3 10 5 ONO 1017,9 39 55 0,0
18.07.2017 08:00:00 17,1 12,7 19,5 17,0 19,4 17,3 3 1 4 2 NNO 1018,8 23 52 0,0
18.07.2017 07:00:00 13,8 11,8 13,5 15,7 19,7 17,3 2 1 4 2 ONO 1019,8 14 45 0,0
18.07.2017 06:00:00 11,3 10,7 9,7 15,8 20,1 17,3 3 1 5 3 ZO 1020,3 8 0 0,0
18.07.2017 05:00:00 11,7 10,8 9,8 16,3 20,4 17,3 0 0 4 2 N 1020,2 10 0 0,0
18.07.2017 04:00:00 11,6 10,9 9,6 16,8 20,8 17,3 0 0 3 2 N 1020,3 6 0 0,0
18.07.2017 03:00:00 12,5 11,5 10,6 17,4 21,2 17,3 2 1 4 2 ZZO 1020,5 12 0 0,0
18.07.2017 02:00:00 12,6 11,5 10,7 18,1 21,5 17,3 3 1 6 3 W 1020,9 12 0 0,0
18.07.2017 01:00:00 13,8 11,6 11,7 18,9 21,9 17,3 4 2 8 4 WNW 1020,6 26 0 0,0
18.07.2017 00:00:00 14,3 12,6 12,0 19,9 22,2 17,3 4 2 6 4 NW 1020,6 25 0 0,0
17.07.2017 23:00:00 16,0 13,2 13,2 21,0 22,5 17,3 2 1 6 3 Z 1020,1 43 0 0,0
17.07.2017 22:00:00 18,1 13,7 14,8 22,4 22,7 17,3 4 2 12 7 NO 1019,5 23 2 0,0
17.07.2017 21:00:00 21,7 13,5 19,0 24,0 22,7 17,3 6 4 13 7 NO 1018,2 70 60 0,0
17.07.2017 20:00:00 23,4 12,9 23,2 25,8 22,6 17,3 8 4 16 9 NO 1017,7 54 60 0,0
17.07.2017 19:00:00 24,7 12,5 26,1 27,3 22,4 17,3 6 3 20 11 NO 1017,4 52 60 0,0
17.07.2017 18:00:00 25,1 13,1 27,5 28,3 21,9 17,3 6 4 16 9 ONO 1017,8 66 57 0,0
17.07.2017 17:00:00 25,0 12,7 28,7 29,0 21,4 17,3 7 4 19 10 NO 1018,2 42 58 0,0
17.07.2017 16:00:00 24,5 11,0 28,7 29,4 20,8 17,3 7 4 16 8 NO 1018,5 41 60 0,0
17.07.2017 15:00:00 24,6 13,0 28,8 28,9 20,1 17,4 9 5 18 10 O 1018,6 24 60 0,0
17.07.2017 14:00:00 23,7 11,9 28,5 28,0 19,4 17,4 9 5 21 12 NNO 1019,2 24 60 0,0
17.07.2017 13:00:00 23,1 11,3 26,8 26,5 18,8 17,4 8 4 17 9 O 1019,6 28 60 0,0
17.07.2017 12:00:00 22,6 11,9 25,7 24,6 18,3 17,4 10 5 18 10 ONO 1019,8 25 60 0,0
17.07.2017 11:00:00 21,5 10,2 24,9 22,4 18,0 17,4 11 6 16 8 NO 1020,3 27 60 0,0
17.07.2017 10:00:00 20,7 9,7 24,1 20,1 17,8 17,4 8 4 14 7 NNO 1020,6 42 60 0,0

tt = temperatuur
td = dauwpunt
tt 5cm = temperatuur 5cm
tt -5cm = temperatuur -5cm
tt -20cm = temperatuur -20cm
tt -100cm = temperatuur -100cm
ff = windsnelheid
fx = windstoten
dd = windrichting
ppp = luchtdruk
vv = zicht
sd = Zonneschijnduur
rr = neerslag

Weerstations in de omgeving